This is the latest recevied weather packets stored in our database for station/object K7CTM. If no packets are shown the sender has not sent any weather packets the latest 10 day(s).
| Time | Temp. | Humidity | Pressure | Rain* | Wind** | Luminosity | Snow |
|---|---|---|---|---|---|---|---|
| 1788584148 | 21.11° C | 36% | 1024.6 hPa | 0 mm | - | 0 W/m² | - |
| 1788583844 | 21.11° C | 35% | 1024.6 hPa | 0 mm | - | 0 W/m² | - |
| 1788583543 | 21.11° C | 35% | 1024.6 hPa | 0 mm | - | 0 W/m² | - |
| 1788583238 | 21.67° C | 35% | 1024.5 hPa | 0 mm | - | 0 W/m² | - |
| 1788582937 | 21.67° C | 34% | 1024.1 hPa | 0 mm | - | 0 W/m² | - |
| 1788582633 | 21.67° C | 34% | 1023.9 hPa | 0 mm | - | 0 W/m² | - |
| 1788582331 | 22.22° C | 34% | 1024.1 hPa | 0 mm | - | 0 W/m² | - |
| 1788582027 | 22.22° C | 33% | 1023.8 hPa | 0 mm | - | 0 W/m² | - |
| 1788581722 | 22.22° C | 33% | 1023.8 hPa | 0 mm | - | 0 W/m² | - |
| 1788581418 | 22.22° C | 33% | 1023.7 hPa | 0 mm | - | 0 W/m² | - |
| 1788581117 | 22.22° C | 33% | 1023.9 hPa | 0 mm | - | 0 W/m² | - |
| 1788580816 | 22.22° C | 33% | 1023.7 hPa | 0 mm | - | 0 W/m² | - |
| 1788580511 | 22.78° C | 33% | 1023.3 hPa | 0 mm | - | 0 W/m² | - |
| 1788580208 | 22.78° C | 32% | 1023.3 hPa | 0 mm | - | 0 W/m² | - |
| 1788579907 | 22.78° C | 32% | 1023 hPa | 0 mm | - | 0 W/m² | - |
| 1788579602 | 23.33° C | 31% | 1022.8 hPa | 0 mm | - | 0 W/m² | - |
| 1788579297 | 23.89° C | 30% | 1023 hPa | 0 mm | - | 0 W/m² | - |
| 1788578992 | 23.33° C | 30% | 1023 hPa | 0 mm | - | 0 W/m² | - |
| 1788578688 | 23.33° C | 29% | 1022.8 hPa | 0 mm | - | 0 W/m² | - |
| 1788578382 | 23.89° C | 27% | 1023 hPa | 0 mm | - | 0 W/m² | - |
| 1788578078 | 23.89° C | 25% | 1022.8 hPa | 0 mm | - | 0 W/m² | - |
| 1788577773 | 23.89° C | 26% | 1022.7 hPa | 0 mm | - | 0 W/m² | - |
| 1788577469 | 24.44° C | 25% | 1022.7 hPa | 0 mm | - | 0 W/m² | - |
| 1788577167 | 23.89° C | 25% | 1022.3 hPa | 0 mm | - | 0 W/m² | - |
| 1788576863 | 24.44° C | 25% | 1022.2 hPa | 0 mm | - | 0 W/m² | - |
* Rain latest hour (hover to see other rain measurements)
** Current wind speed in m/s (hover to see current wind gust speed)